SCP
0 0 -0 -0 0 -0 -0 -0 0 0 0 -0 0 0 0 0 0 0 0 -0 -0 -0 -0 -0 -0 -0 0 0 0 -0 -0 0
0 0 -0 0 0 0 -0 0 0 0 0 0 0 0 0 0 0 0 0 0 -0 -0 -0 -0 -0 0 0 1 0 -0 0 0
0 0 -0 0 -0 0 -0 0 0 0 0 -0 0 0 0 0 0 0 0 -0 -0 0 -0 0 0 0 0 0 0 -0 0 0
-0 0 0 0 0 0 0 0 0 0 0 -0 -0 0 0 0 0 0 -0 -0 0 0 0 0 0 0 0 0 -0 -0 0 1
-0 -0 0 0 -0 0 -0 -0 0 0 0 0 0 0 0 0 0 0 0 0 -0 -0 0 0 0 0 1 1 0 0 2 1
-0 -0 0 0 0 0 0 0 0 0 0 0 0 0 0 0 0 0 0 0 0 0 0 0 -0 0 2 2 1 2 1 1
0 0 0 0 -0 0 0 0 0 0 0 0 0 0 0 0 0 0 0 0 -0 0 0 -0 -1 0 1 1 1 0 1 3
0 0 -0 0 0 0 -0 0 0 0 0 0 0 0 0 0 0 -0 0 0 0 -0 -0 -1 -0 -0 -1 -1 0 0 1 1
0 0 0 0 0 -0 0 0 0 0 0 0 0 0 -0 0 -0 -0 0 0 -0 -1 -1 -1 -0 -0 -1 0 1 1 0 0
0 0 0 -0 0 -0 0 0 -0 0 0 0 0 0 -0 0 -0 0 0 0 0 0 -0 -0 -0 -0 -0 -0 -0 -0 -0 -0
-0 0 0 0 0 0 -0 0 0 0 0 0 0 0 0 1 0 0 0 1 1 0 0 -0 -0 -0 -0 -0 0 -0 -0 -0
-0 -0 -0 0 0 0 0 0 0 1 1 1 0 0 1 1 1 1 0 0 1 0 0 -0 -0 -0 0 0 0 0 -0 0
0 0 0 1 0 0 0 0 1 1 1 1 1 1 1 1 0 1 0 1 0 0 0 0 0 0 1 1 0 0 0 0
0 -0 0 1 0 1 1 1 1 1 1 1 1 1 1 0 0 1 1 1 0 1 0 1 1 1 0 0 0 1 0 1
0 0 0 0 0 0 0 0 0 0 0 0 0 0 1 0 0 1 1 1 1 1 1 2 1 1 1 1 1 1 1 1
0 0 0 0 0 0 0 0 0 0 0 0 0 0 1 0 0 1 1 1 1 1 1 1 2 1 1 2 2 2 2 1
0 0 0 0 0 0 0 0 0 0 0 0 0 0 1 0 0 1 0 0 1 1 1 1 1 1 1 2 2 2 1 1
0 0 1 1 0 0 0 0 -0 0 0 0 0 0 0 1 1 0 0 0 1 1 1 1 1 3 4 1 1 1 1 1
-0 0 0 0 0 0 -0 -0 -0 0 0 0 0 0 1 1 0 0 0 1 2 1 1 1 1 1 1 1 1 1 1 1
Wind_Speed_500mb
18 25 31 34 29 39 43 40 31 8 23 38 8 12 8 17 4 21 29 44 47 51 51 47 47 50 49 46 44 43 36 32
17 17 30 37 18 23 23 29 35 31 25 18 12 10 11 9 5 19 28 37 46 50 48 45 45 47 48 48 51 48 41 34
10 22 27 23 30 23 38 26 26 26 17 40 17 8 7 10 7 13 10 33 42 45 47 43 44 49 52 50 50 47 43 37
25 14 20 33 30 37 17 28 26 19 9 48 17 5 11 8 5 12 8 29 34 41 46 45 48 53 55 50 47 44 46 43
17 23 23 19 30 30 38 34 30 27 10 4 14 16 12 19 7 12 9 21 33 45 50 48 51 58 57 52 51 47 51 45
22 24 19 21 24 31 33 26 24 21 25 22 12 12 12 33 15 3 18 28 36 45 48 47 46 52 58 56 56 62 52 46
12 23 11 22 34 27 33 30 35 30 10 18 12 17 17 12 12 13 22 34 46 49 51 47 46 47 48 58 67 53 50 50
21 26 26 21 26 30 39 30 28 37 29 21 16 12 14 21 8 13 25 36 45 50 51 53 51 49 48 49 53 56 45 38
28 28 28 25 26 31 30 31 29 28 21 12 17 25 34 11 10 17 29 41 49 54 54 52 51 51 51 57 50 45 41 40
25 31 35 36 18 38 21 22 33 24 24 17 19 28 39 15 9 17 33 44 48 51 50 46 45 48 53 59 56 47 31 28
23 25 31 35 19 10 58 19 35 32 32 31 29 34 30 24 7 14 32 39 43 41 43 46 50 54 58 49 45 36 31 40
23 29 35 23 11 13 16 16 28 30 27 27 32 18 16 16 12 6 23 36 40 38 39 44 47 51 44 39 38 32 34 36
27 28 25 17 17 13 17 10 29 29 26 24 17 19 20 14 4 10 21 31 37 38 38 39 42 43 36 32 29 31 37 40
18 29 13 30 12 14 18 20 23 21 22 20 19 13 7 11 9 16 26 31 36 39 36 38 42 40 33 23 24 35 42 44
10 4 8 52 11 20 20 22 22 23 23 21 21 12 7 7 6 18 25 31 34 36 40 39 42 35 29 23 28 35 42 48
25 20 7 8 6 10 17 15 21 23 23 21 20 10 4 5 12 19 25 28 32 36 39 40 42 30 29 37 39 40 45 45
23 33 26 12 2 12 19 19 20 20 17 17 16 13 6 12 22 24 25 28 30 35 40 41 39 31 35 37 42 50 48 46
10 10 5 17 14 22 25 23 19 18 19 14 12 15 13 17 20 27 33 35 33 40 39 35 41 37 35 46 44 46 45 41
31 13 18 8 34 33 26 26 18 16 21 18 8 10 18 17 17 20 23 32 32 36 40 36 29 35 37 46 47 43 38 47
Wind_Direction_500mb
217 225 241 233 220 255 264 267 272 291 9 267 224 250 290 233 158 161 189 194 197 198 199 193 191 187 183 183 188 190 187 185
199 235 232 255 262 229 243 267 273 282 182 239 166 195 320 336 7 152 176 195 193 199 197 191 193 191 186 187 193 190 185 184
200 213 232 205 243 249 267 225 253 266 264 3 113 106 285 354 313 55 193 183 199 192 188 185 189 190 189 188 185 181 181 183
226 186 215 232 217 241 235 242 276 304 272 175 266 191 211 299 22 54 278 174 195 184 174 180 184 185 187 186 182 181 188 180
222 185 187 243 256 245 240 253 245 257 302 70 5 345 320 303 94 159 186 165 183 173 172 179 182 183 183 182 182 178 189 183
296 4 349 201 222 251 262 264 267 248 283 290 38 330 327 62 49 251 165 162 169 166 175 176 178 178 180 179 179 187 191 175
288 310 295 298 296 224 244 268 277 284 354 298 40 327 27 31 3 237 171 172 167 173 178 178 178 179 179 176 187 190 185 191
288 282 259 245 271 269 278 228 260 270 283 327 315 294 2 43 326 201 185 175 172 173 178 177 182 182 179 182 175 177 180 186
292 303 299 272 242 244 259 250 240 253 246 314 352 350 322 118 291 194 185 181 177 179 182 184 182 178 180 169 170 175 183 205
276 279 273 274 34 316 299 250 252 247 279 321 313 293 292 357 169 207 189 188 186 185 179 180 178 175 170 174 184 187 196 180
282 271 275 272 342 55 312 246 34 1 355 345 332 346 53 34 18 216 192 191 191 191 182 174 174 170 169 177 188 194 189 180
273 286 282 297 52 338 311 264 29 11 0 354 341 294 56 13 1 199 191 189 187 186 184 180 177 170 167 174 185 180 173 172
237 237 250 12 351 313 254 5 358 356 346 346 329 333 332 337 299 212 189 183 185 183 184 182 181 181 173 172 176 178 168 170
298 304 236 349 315 319 0 335 344 337 328 314 303 309 327 292 245 210 190 180 182 176 179 180 181 183 184 186 179 171 173 173
191 241 48 248 3 343 341 328 323 314 310 296 298 301 302 273 208 183 181 174 176 177 177 174 175 174 181 187 177 170 172 171
282 294 38 1 76 5 348 324 311 302 297 275 273 274 256 214 170 165 172 170 175 171 169 168 168 169 181 188 178 168 168 174
274 264 263 241 151 347 324 308 308 309 298 274 273 256 194 185 175 163 159 159 172 172 167 167 173 186 200 190 175 170 174 161
281 349 250 27 318 312 310 298 288 312 311 283 279 241 179 177 183 175 173 170 159 170 170 176 185 182 177 172 167 163 161 158
280 148 222 234 273 297 288 291 261 299 304 275 261 237 193 186 184 185 174 176 166 162 175 167 169 168 170 166 169 163 157 164
Wind_Speed_850mb
18 25 31 34 29 39 43 40 31 8 23 38 8 12 8 17 4 21 29 44 47 51 51 47 47 50 49 46 44 43 36 32
17 17 30 37 18 23 23 29 35 31 25 18 12 10 11 9 5 19 28 37 46 50 48 45 45 47 48 48 51 48 41 34
10 22 27 23 30 23 38 26 26 26 17 40 17 8 7 10 7 13 10 33 42 45 47 43 44 49 52 50 50 47 43 37
25 14 20 33 30 37 17 28 26 19 9 48 17 5 11 8 5 12 8 29 34 41 46 45 48 53 55 50 47 44 46 43
17 23 23 19 30 30 38 34 30 27 10 4 14 16 12 19 7 12 9 21 33 45 50 48 51 58 57 52 51 47 51 45
22 24 19 21 24 31 33 26 24 21 25 22 12 12 12 33 15 3 18 28 36 45 48 47 46 52 58 56 56 62 52 46
12 23 11 22 34 27 33 30 35 30 10 18 12 17 17 12 12 13 22 34 46 49 51 47 46 47 48 58 67 53 50 50
21 26 26 21 26 30 39 30 28 37 29 21 16 12 14 21 8 13 25 36 45 50 51 53 51 49 48 49 53 56 45 38
28 28 28 25 26 31 30 31 29 28 21 12 17 25 34 11 10 17 29 41 49 54 54 52 51 51 51 57 50 45 41 40
25 31 35 36 18 38 21 22 33 24 24 17 19 28 39 15 9 17 33 44 48 51 50 46 45 48 53 59 56 47 31 28
23 25 31 35 19 10 58 19 35 32 32 31 29 34 30 24 7 14 32 39 43 41 43 46 50 54 58 49 45 36 31 40
23 29 35 23 11 13 16 16 28 30 27 27 32 18 16 16 12 6 23 36 40 38 39 44 47 51 44 39 38 32 34 36
27 28 25 17 17 13 17 10 29 29 26 24 17 19 20 14 4 10 21 31 37 38 38 39 42 43 36 32 29 31 37 40
18 29 13 30 12 14 18 20 23 21 22 20 19 13 7 11 9 16 26 31 36 39 36 38 42 40 33 23 24 35 42 44
10 4 8 52 11 20 20 22 22 23 23 21 21 12 7 7 6 18 25 31 34 36 40 39 42 35 29 23 28 35 42 48
25 20 7 8 6 10 17 15 21 23 23 21 20 10 4 5 12 19 25 28 32 36 39 40 42 30 29 37 39 40 45 45
23 33 26 12 2 12 19 19 20 20 17 17 16 13 6 12 22 24 25 28 30 35 40 41 39 31 35 37 42 50 48 46
10 10 5 17 14 22 25 23 19 18 19 14 12 15 13 17 20 27 33 35 33 40 39 35 41 37 35 46 44 46 45 41
31 13 18 8 34 33 26 26 18 16 21 18 8 10 18 17 17 20 23 32 32 36 40 36 29 35 37 46 47 43 38 47
Wind_Direction_850mb
217 225 241 233 220 255 264 267 272 291 9 267 224 250 290 233 158 161 189 194 197 198 199 193 191 187 183 183 188 190 187 185
199 235 232 255 262 229 243 267 273 282 182 239 166 195 320 336 7 152 176 195 193 199 197 191 193 191 186 187 193 190 185 184
200 213 232 205 243 249 267 225 253 266 264 3 113 106 285 354 313 55 193 183 199 192 188 185 189 190 189 188 185 181 181 183
226 186 215 232 217 241 235 242 276 304 272 175 266 191 211 299 22 54 278 174 195 184 174 180 184 185 187 186 182 181 188 180
222 185 187 243 256 245 240 253 245 257 302 70 5 345 320 303 94 159 186 165 183 173 172 179 182 183 183 182 182 178 189 183
296 4 349 201 222 251 262 264 267 248 283 290 38 330 327 62 49 251 165 162 169 166 175 176 178 178 180 179 179 187 191 175
288 310 295 298 296 224 244 268 277 284 354 298 40 327 27 31 3 237 171 172 167 173 178 178 178 179 179 176 187 190 185 191
288 282 259 245 271 269 278 228 260 270 283 327 315 294 2 43 326 201 185 175 172 173 178 177 182 182 179 182 175 177 180 186
292 303 299 272 242 244 259 250 240 253 246 314 352 350 322 118 291 194 185 181 177 179 182 184 182 178 180 169 170 175 183 205
276 279 273 274 34 316 299 250 252 247 279 321 313 293 292 357 169 207 189 188 186 185 179 180 178 175 170 174 184 187 196 180
282 271 275 272 342 55 312 246 34 1 355 345 332 346 53 34 18 216 192 191 191 191 182 174 174 170 169 177 188 194 189 180
273 286 282 297 52 338 311 264 29 11 0 354 341 294 56 13 1 199 191 189 187 186 184 180 177 170 167 174 185 180 173 172
237 237 250 12 351 313 254 5 358 356 346 346 329 333 332 337 299 212 189 183 185 183 184 182 181 181 173 172 176 178 168 170
298 304 236 349 315 319 0 335 344 337 328 314 303 309 327 292 245 210 190 180 182 176 179 180 181 183 184 186 179 171 173 173
191 241 48 248 3 343 341 328 323 314 310 296 298 301 302 273 208 183 181 174 176 177 177 174 175 174 181 187 177 170 172 171
282 294 38 1 76 5 348 324 311 302 297 275 273 274 256 214 170 165 172 170 175 171 169 168 168 169 181 188 178 168 168 174
274 264 263 241 151 347 324 308 308 309 298 274 273 256 194 185 175 163 159 159 172 172 167 167 173 186 200 190 175 170 174 161
281 349 250 27 318 312 310 298 288 312 311 283 279 241 179 177 183 175 173 170 159 170 170 176 185 182 177 172 167 163 161 158
280 148 222 234 273 297 288 291 261 299 304 275 261 237 193 186 184 185 174 176 166 162 175 167 169 168 170 166 169 163 157 164